Location: Newark
(45.9456°N, 15.4064°E)
Time: 14:59:19
(UTC+00:00)

SR - Pass Details

Date: 27 January 2020
Orbit: 575 x 880 km, 66.7° (Epoch: 22 February)

Event Time Altitude Azimuth Distance (km) Brightness Sun altitude
Rises 20:39:33 0° 208° (SSW) 3,400 - -48.4°
Reaches altitude 10° 20:41:59 10° 208° (SSW) 2,493 - -48.8°
Maximum altitude 20:47:49 84° 121° (ESE) 890 - -49.6°
Drops below altitude 10° 20:53:47 10° 34° (NE) 2,537 - -50.5°
Sets 20:56:16 0° 34° (NE) 3,464 - -50.9°
